Wind_Speed
30 30 35 37 37 37 37 38 41 42 40 37 37 38 39 40 41 42 42 43 43 44 45 46 47 48 50 50 50 49 47 45 43 43 43 44 45 46 47 49 50 50
33 33 36 37 38 38 38 39 40 39 37 35 36 37 38 40 41 41 42 42 42 43 43 44 45 46 47 46 46 44 43 42 43 44 45 46 47 48 49 50 51 51
35 35 36 36 36 37 37 37 36 34 33 34 35 36 38 39 39 39 39 40 40 40 41 42 43 43 44 43 43 43 43 44 45 46 47 48 49 50 51 51 51 51
35 36 36 35 36 36 36 35 33 31 31 32 33 34 35 35 35 36 37 38 38 39 40 41 42 42 43 42 42 43 44 46 47 48 49 49 50 51 52 52 51 51
34 34 34 34 34 35 36 35 33 31 31 32 33 34 35 36 36 37 38 39 40 41 41 42 42 42 43 43 43 44 46 47 48 49 49 50 51 52 52 52 52 52
36 35 36 37 37 38 38 37 34 32 32 33 34 35 37 38 39 39 40 41 41 42 42 42 43 43 44 44 45 45 46 47 48 49 50 50 51 52 52 52 52 52
41 40 40 40 40 40 39 36 34 34 34 35 36 37 38 39 40 40 41 41 42 42 43 43 43 44 45 45 45 46 46 47 48 49 50 51 51 52 52 52 52 52
44 44 42 41 39 38 37 36 35 36 37 37 38 38 39 40 40 41 41 42 42 42 43 43 43 44 45 46 46 46 47 48 48 49 50 50 51 52 52 52 52 52
44 44 42 40 39 39 39 38 38 38 38 38 38 39 40 40 40 41 42 42 43 43 43 43 44 45 45 46 46 47 48 49 49 49 50 51 52 52 52 53 53 52
43 43 42 42 42 42 42 40 39 39 38 38 39 40 41 41 42 43 43 43 43 43 44 45 46 46 46 47 48 49 49 49 50 50 51 52 53 53 53 53 53 53
44 44 43 43 44 43 42 41 40 39 39 40 41 42 42 43 43 44 43 43 43 44 46 47 47 47 48 48 49 49 49 50 50 51 52 53 54 54 54 54 54 54
43 43 43 43 44 43 41 41 40 40 40 40 41 42 43 44 44 44 44 45 46 47 48 48 48 48 47 48 48 50 50 51 51 52 53 54 54 54 55 55 55 55
41 42 42 43 43 42 41 41 40 40 40 41 43 44 45 45 46 46 47 47 48 48 48 47 47 47 48 49 50 50 50 51 51 52 53 54 55 55 56 56 57 57
41 42 43 44 43 42 42 42 42 42 43 44 45 46 46 47 48 48 48 48 47 47 47 47 47 48 49 50 50 50 50 51 52 53 55 56 56 57 57 57 58 58
43 43 44 44 43 43 43 44 44 44 45 45 46 46 47 47 48 48 47 47 47 46 46 47 47 48 49 49 50 50 51 52 53 55 57 58 58 58 59 59 59 59
44 45 45 45 44 44 44 44 44 45 45 46 46 47 47 47 47 47 46 46 47 47 47 47 47 48 49 50 51 53 54 54 55 57 59 59 60 60 60 60 60 60
45 45 45 45 44 43 43 43 44 44 45 45 46 46 46 46 46 46 46 46 47 47 47 47 48 49 51 53 54 55 56 56 57 59 60 61 61 62 62 61 61 61
43 43 43 43 42 42 42 42 43 43 44 44 45 45 45 45 46 46 47 47 47 47 47 49 50 52 54 55 56 57 57 57 59 61 62 62 62 62 61 61 61 62
41 41 41 41 41 41 41 41 41 42 43 44 44 44 45 46 46 47 47 47 48 49 50 51 53 54 55 56 57 57 58 59 60 61 62 62 61 61 60 60 62 64
41 40 40 39 39 39 39 40 41 42 44 45 45 46 47 48 48 48 48 49 50 51 52 53 54 55 56 57 57 57 58 59 60 61 61 61 61 60 60 61 64 65
38 37 37 36 36 38 40 41 43 45 46 47 46 47 47 47 48 48 48 48 50 51 51 53 54 55 56 55 55 57 58 59 60 60 60 60 60 60 61 64 65 65
37 36 36 37 38 40 42 43 44 45 44 44 43 44 45 46 47 47 47 47 48 49 51 53 54 54 54 54 56 57 58 58 59 59 60 60 61 62 64 65 65 64
36 37 38 38 39 40 40 40 42 42 41 40 41 42 43 44 44 45 46 47 48 50 52 54 54 54 54 56 57 57 57 57 58 59 60 62 63 64 65 64 64 63
38 38 39 39 38 39 36 33 36 41 42 42 43 42 42 43 45 47 49 50 52 54 55 55 55 56 56 57 57 57 56 57 58 60 61 62 63 63 63 63 63 63
40 39 38 36 36 36 33 30 33 38 42 45 44 43 45 48 52 53 53 54 55 56 57 56 56 56 56 57 57 56 56 57 59 60 61 62 63 63 63 63 62 61
40 38 35 31 31 30 28 29 34 39 43 46 46 46 49 53 54 54 55 56 57 56 55 55 56 57 57 57 57 57 57 59 60 61 63 64 64 64 63 62 61 59
Wind_Direction
241 239 241 244 249 255 262 270 277 283 285 285 284 284 285 286 287 288 290 292 294 296 298 299 301 301 302 303 305 307 308 309 310 311 312 313 314 315 314 315 315 314
241 240 241 246 252 256 262 269 274 279 283 285 285 286 287 287 288 289 290 293 296 298 299 300 302 302 303 305 307 308 309 309 310 311 313 314 315 315 315 315 315 314
244 243 243 246 250 257 264 270 275 280 284 286 286 287 287 287 289 290 292 295 298 299 300 301 303 304 305 307 307 308 308 308 310 312 314 315 315 315 315 316 315 314
246 245 244 244 250 260 268 273 278 283 285 285 286 286 287 288 290 291 293 295 297 298 300 302 304 304 305 305 306 306 307 309 311 313 314 314 314 315 316 316 315 314
243 242 242 247 257 266 271 275 280 283 284 286 286 286 287 289 290 291 292 294 296 298 300 302 302 302 303 304 304 305 307 310 312 313 314 314 315 316 316 316 315 315
238 239 243 252 262 269 273 276 279 281 283 285 286 287 289 290 290 291 293 294 296 297 299 300 301 301 302 302 303 306 308 311 313 314 314 314 315 316 316 316 315 315
236 241 246 253 261 266 270 274 277 280 283 287 289 290 291 291 292 293 293 294 296 297 299 300 301 301 301 302 304 306 309 311 313 313 313 314 315 315 316 316 315 315
237 242 248 254 260 264 268 272 277 281 285 289 291 291 291 292 292 293 294 295 297 299 300 301 301 301 302 303 305 307 309 311 313 313 313 313 314 315 316 316 315 315
241 244 250 255 260 264 268 273 278 282 286 289 290 290 291 292 293 294 295 297 299 300 301 301 301 302 303 304 306 308 310 311 312 312 312 313 315 316 316 316 315 315
245 248 252 257 262 265 270 275 279 283 286 288 289 290 292 293 295 296 297 298 299 300 300 301 302 303 304 306 307 308 310 311 312 312 313 314 315 316 316 316 315 315
249 252 256 260 264 268 272 276 280 283 286 288 289 290 292 293 295 296 297 297 297 298 299 301 302 304 305 307 308 309 311 312 312 312 313 315 316 316 316 315 315 314
254 257 260 263 267 271 275 278 281 284 286 288 289 291 292 294 295 295 296 296 296 297 299 302 304 305 307 308 309 311 311 312 312 313 314 315 316 315 315 314 314 314
259 262 264 267 270 274 277 280 282 284 286 288 290 291 292 293 294 294 295 295 296 298 301 303 304 306 307 309 310 310 311 312 313 314 315 315 315 315 314 314 314 314
263 266 268 271 273 277 279 281 283 285 286 288 290 291 291 292 293 293 295 296 298 300 301 303 304 306 307 308 309 310 312 313 313 314 314 315 315 314 314 314 314 314
266 268 271 273 276 278 280 282 284 286 287 289 289 290 291 291 292 293 295 296 298 300 301 303 305 306 307 308 309 311 313 313 313 313 314 315 315 314 314 314 314 314
269 270 272 274 277 279 281 284 285 287 288 288 289 290 290 290 291 293 294 296 297 299 301 303 304 305 306 308 310 311 313 313 313 313 314 314 314 314 315 314 314 314
270 272 274 276 278 281 283 285 287 287 287 287 287 287 288 288 290 292 294 295 297 299 301 303 304 305 306 308 310 311 312 312 312 312 313 314 314 315 314 314 314 315
272 273 275 277 280 282 285 286 286 285 285 285 285 286 287 288 290 292 293 295 297 299 301 302 303 305 306 308 310 310 310 311 311 312 313 314 314 314 314 314 314 315
272 273 275 279 282 284 285 284 283 283 283 283 284 286 287 289 290 292 293 295 298 299 301 302 303 305 306 307 308 308 309 310 311 312 313 314 314 313 313 314 314 315
271 274 277 281 282 282 281 280 280 280 281 282 284 286 288 289 290 292 295 297 298 300 300 302 303 304 305 306 306 307 309 310 311 312 313 313 313 313 313 314 314 315
272 275 279 280 281 281 280 280 280 281 282 285 287 289 290 291 293 295 297 298 298 299 300 302 303 304 305 306 307 308 310 311 311 311 312 313 313 312 313 314 314 315
274 277 280 282 283 283 283 283 283 283 285 287 288 289 289 291 293 293 294 295 295 297 300 302 303 304 304 305 307 309 310 310 311 311 312 312 312 312 313 314 315 315
278 281 283 285 284 283 285 286 284 282 283 285 287 287 288 289 289 290 291 292 292 296 300 302 303 304 305 306 308 310 310 310 310 311 311 312 312 313 314 315 315 314
285 285 284 283 281 281 283 283 279 280 284 288 289 288 287 287 288 289 291 291 292 295 299 301 303 305 306 307 308 309 309 309 310 310 312 313 314 315 315 315 314 314
284 283 282 281 282 285 286 281 273 276 283 289 290 288 287 288 289 290 291 291 293 296 299 301 303 304 305 306 306 307 308 309 311 312 314 315 315 315 315 314 314 313
278 277 276 279 283 286 288 285 278 275 278 283 285 285 285 286 288 290 291 293 295 298 299 300 301 302 303 304 305 306 308 310 312 313 315 315 315 315 314 313 313 313
Height
10718 10718 10718 10718 10718 10718 10719 10719 10719 10719 10720 10721 10721 10720 10721 10720 10719 10718 10717 10716 10715 10715 10713 10712 10710 10708 10706 10705 10703 10701 10699 10696 10693 10691 10688 10685 10682 10680 10677 10675 10672 10669
10714 10714 10715 10716 10715 10715 10716 10716 10716 10716 10716 10717 10716 10716 10716 10715 10715 10713 10712 10711 10711 10710 10709 10707 10706 10704 10702 10700 10699 10697 10695 10692 10689 10686 10683 10680 10678 10675 10673 10670 10668 10665
10710 10711 10712 10712 10712 10712 10712 10712 10712 10712 10712 10712 10712 10712 10712 10711 10710 10709 10707 10707 10707 10706 10705 10703 10702 10699 10698 10697 10695 10693 10690 10687 10684 10681 10679 10676 10673 10671 10668 10666 10663 10660
10706 10707 10708 10708 10708 10708 10708 10707 10708 10708 10708 10708 10709 10709 10708 10707 10706 10705 10704 10703 10703 10702 10701 10699 10698 10695 10694 10693 10691 10689 10686 10683 10679 10677 10674 10671 10669 10666 10664 10661 10658 10655
10701 10702 10703 10704 10704 10703 10703 10703 10704 10704 10704 10704 10705 10705 10704 10703 10702 10701 10700 10700 10699 10698 10697 10696 10694 10692 10690 10689 10687 10684 10681 10678 10675 10671 10669 10666 10664 10662 10659 10657 10653 10650
10696 10697 10698 10699 10699 10698 10698 10699 10700 10700 10700 10701 10701 10701 10700 10699 10699 10697 10696 10696 10695 10694 10693 10692 10690 10688 10686 10684 10682 10680 10677 10673 10670 10667 10664 10661 10659 10657 10654 10651 10648 10645
10693 10694 10694 10694 10694 10694 10694 10695 10697 10697 10697 10697 10697 10696 10696 10695 10694 10693 10692 10691 10690 10690 10689 10687 10686 10683 10681 10679 10677 10675 10672 10669 10666 10663 10659 10657 10654 10652 10649 10646 10643 10640
10690 10690 10691 10691 10690 10690 10690 10692 10693 10693 10693 10693 10692 10692 10691 10691 10691 10689 10688 10687 10686 10685 10684 10683 10681 10679 10677 10674 10672 10670 10667 10665 10662 10659 10655 10653 10650 10648 10645 10642 10638 10635
10686 10687 10687 10686 10686 10685 10686 10688 10689 10689 10689 10689 10688 10687 10687 10687 10686 10685 10683 10682 10681 10680 10679 10678 10677 10675 10672 10669 10666 10664 10663 10660 10657 10654 10651 10648 10646 10643 10640 10637 10634 10630
10682 10682 10682 10682 10681 10681 10683 10685 10685 10685 10685 10684 10684 10683 10683 10683 10682 10680 10678 10676 10675 10675 10674 10673 10672 10670 10667 10664 10661 10659 10658 10655 10652 10649 10646 10644 10641 10638 10635 10632 10629 10625
10678 10678 10677 10677 10677 10678 10680 10681 10681 10681 10680 10680 10679 10678 10678 10678 10677 10675 10673 10671 10670 10669 10669 10668 10666 10664 10662 10659 10656 10654 10652 10650 10647 10644 10641 10639 10636 10633 10630 10627 10623 10620
10674 10673 10673 10672 10673 10675 10676 10676 10676 10676 10675 10675 10674 10673 10673 10672 10671 10670 10669 10667 10665 10664 10663 10662 10660 10658 10656 10654 10651 10649 10647 10644 10641 10639 10636 10634 10631 10628 10625 10621 10618 10614
10669 10669 10668 10668 10670 10671 10672 10672 10671 10671 10670 10670 10669 10668 10667 10667 10666 10665 10664 10662 10660 10659 10657 10656 10654 10653 10651 10649 10646 10644 10642 10639 10636 10633 10631 10629 10626 10623 10619 10616 10612 10608
10665 10664 10664 10664 10666 10667 10667 10667 10666 10666 10665 10664 10663 10663 10662 10660 10659 10658 10658 10656 10654 10653 10651 10650 10649 10647 10645 10643 10641 10638 10636 10633 10630 10628 10626 10624 10621 10617 10614 10610 10606 10602
10660 10659 10659 10660 10662 10663 10662 10662 10661 10660 10659 10659 10658 10657 10656 10654 10653 10652 10651 10650 10648 10647 10646 10645 10643 10641 10640 10638 10635 10633 10630 10628 10625 10623 10621 10618 10615 10612 10608 10604 10600 10596
10655 10655 10655 10656 10657 10657 10657 10656 10655 10654 10653 10653 10652 10651 10650 10648 10647 10646 10645 10643 10642 10641 10640 10639 10638 10636 10634 10632 10630 10627 10625 10622 10620 10617 10615 10613 10610 10606 10602 10599 10595 10591
10651 10650 10650 10651 10652 10651 10651 10650 10649 10648 10647 10646 10646 10645 10644 10642 10641 10640 10639 10638 10637 10636 10635 10634 10632 10631 10629 10626 10624 10621 10619 10617 10614 10612 10609 10607 10604 10600 10596 10593 10589 10585
10645 10645 10645 10645 10646 10646 10645 10644 10643 10642 10641 10640 10640 10639 10638 10637 10636 10634 10633 10633 10632 10630 10629 10628 10627 10625 10623 10621 10619 10616 10614 10611 10609 10606 10604 10601 10598 10594 10591 10587 10584 10580
10640 10640 10640 10640 10640 10640 10639 10638 10637 10636 10635 10634 10634 10633 10632 10631 10630 10629 10628 10627 10626 10625 10624 10623 10621 10619 10618 10616 10614 10611 10608 10606 10603 10600 10598 10595 10592 10588 10585 10581 10578 10574
10634 10635 10635 10636 10635 10634 10633 10632 10631 10630 10629 10628 10628 10627 10626 10625 10624 10624 10623 10622 10621 10620 10618 10617 10616 10614 10613 10611 10608 10606 10603 10600 10597 10594 10592 10589 10586 10583 10579 10576 10572 10568
10630 10631 10631 10631 10630 10628 10627 10626 10624 10623 10622 10622 10621 10620 10620 10619 10618 10618 10617 10616 10615 10614 10613 10612 10611 10609 10607 10605 10603 10600 10597 10594 10591 10589 10586 10583 10580 10577 10574 10570 10566 10562
10626 10627 10626 10626 10625 10623 10621 10620 10618 10617 10616 10615 10615 10615 10614 10613 10613 10612 10611 10611 10610 10609 10608 10607 10605 10604 10602 10600 10597 10595 10592 10589 10586 10583 10580 10578 10575 10572 10568 10564 10560 10557
10622 10623 10622 10621 10619 10617 10615 10614 10611 10610 10610 10610 10609 10609 10609 10608 10607 10607 10607 10606 10605 10604 10603 10602 10600 10599 10597 10594 10592 10589 10586 10583 10581 10578 10575 10572 10569 10566 10562 10558 10554 10551
10619 10618 10617 10616 10614 10611 10610 10608 10604 10602 10603 10603 10603 10603 10603 10602 10602 10602 10602 10601 10600 10600 10599 10597 10595 10593 10591 10588 10586 10584 10581 10578 10576 10573 10570 10567 10564 10560 10556 10553 10549 10545
10615 10613 10612 10611 10609 10606 10606 10604 10600 10598 10597 10597 10598 10598 10597 10596 10596 10596 10596 10596 10595 10594 10593 10592 10590 10588 10585 10583 10580 10578 10576 10573 10571 10568 10564 10561 10558 10554 10551 10547 10544 10540
10609 10608 10608 10608 10606 10604 10604 10602 10598 10596 10594 10593 10593 10593 10592 10591 10590 10590 10590 10590 10589 10589 10588 10586 10584 10582 10580 10577 10575 10573 10571 10568 10565 10562 10559 10556 10552 10549 10545 10542 10538 10535